Location: Sungai Apap
(2.6167°N, 113.3833°E)
Time: 14:05:33
(UTC+00:00)

Cosmos 292 Rocket - Pass Details

Date: 25 May 2024
Orbit: 667 x 689 km, 74.0° (Epoch: 11 June)

Event Time Altitude Azimuth Distance (km) Brightness Sun altitude
Exits shadow 20:17:51 57° 102° (ESE) 785 4.2 -28.0°
Drops below altitude 10° 20:22:26 10° 24° (NNE) 2,085 6.8 -27.0°
Sets 20:24:45 0° 20° (NNE) 2,998 7.7 -26.4°
